TimeEDT,TemperatureF,Dew PointF,Humidity,Sea Level PressureIn,VisibilityMPH,Wind Direction,Wind SpeedMPH,Gust SpeedMPH,PrecipitationIn,Events,Conditions,WindDirDegrees,DateUTC
12:53 AM,-9999,-9999,N/A,-9999,-9999.0,North,-9999.0,-,N/A,,Unknown,0,2013-10-08 04:53:00
1:53 AM,-9999,-9999,N/A,-9999,-9999.0,North,-9999.0,-,N/A,,Unknown,0,2013-10-08 05:53:00
2:53 AM,-9999,-9999,N/A,-9999,-9999.0,North,-9999.0,-,N/A,,Unknown,0,2013-10-08 06:53:00
3:53 AM,-9999,-9999,N/A,-9999,-9999.0,North,-9999.0,-,N/A,,Unknown,0,2013-10-08 07:53:00
4:53 AM,-9999,-9999,N/A,-9999,-9999.0,North,-9999.0,-,N/A,,Unknown,0,2013-10-08 08:53:00
5:53 AM,-9999,-9999,N/A,-9999,-9999.0,North,-9999.0,-,N/A,,Unknown,0,2013-10-08 09:53:00
6:53 AM,-9999,-9999,N/A,-9999,-9999.0,North,-9999.0,-,N/A,,Unknown,0,2013-10-08 10:53:00
7:53 AM,-9999,-9999,N/A,29.90,10.0,SSW,5.8,-,N/A,,Clear,210,2013-10-08 11:53:00
8:53 AM,-9999,-9999,N/A,29.91,10.0,SW,8.1,-,N/A,,Mostly Cloudy,230,2013-10-08 12:53:00
9:53 AM,-9999,-9999,N/A,29.92,10.0,West,9.2,-,N/A,,Mostly Cloudy,270,2013-10-08 13:53:00
10:53 AM,-9999,-9999,N/A,29.93,10.0,West,9.2,-,N/A,Rain,Rain,280,2013-10-08 14:53:00
11:53 AM,-9999,-9999,N/A,29.94,10.0,SW,8.1,-,N/A,,Scattered Clouds,220,2013-10-08 15:53:00
12:53 PM,-9999,-9999,N/A,29.91,10.0,West,11.5,-,N/A,,Scattered Clouds,280,2013-10-08 16:53:00
1:53 PM,-9999,-9999,N/A,29.90,10.0,WNW,13.8,-,N/A,,Scattered Clouds,300,2013-10-08 17:53:00
2:53 PM,-9999,-9999,N/A,-9999,-9999.0,North,-9999.0,-,N/A,,Unknown,0,2013-10-08 18:53:00
3:53 PM,-9999,-9999,N/A,-9999,-9999.0,North,-9999.0,-,N/A,,Unknown,0,2013-10-08 19:53:00
4:53 PM,-9999,-9999,N/A,29.88,10.0,SSE,13.8,-,N/A,,Scattered Clouds,160,2013-10-08 20:53:00
5:53 PM,-9999,-9999,N/A,29.87,10.0,SSE,4.6,-,N/A,Rain,Light Rain,160,2013-10-08 21:53:00
6:53 PM,-9999,-9999,N/A,-9999,-9999.0,North,-9999.0,-,N/A,Rain,Light Rain,0,2013-10-08 22:53:00
7:53 PM,-9999,-9999,N/A,-9999,-9999.0,North,-9999.0,-,N/A,Rain,Light Rain,0,2013-10-08 23:53:00
8:53 PM,-9999,-9999,N/A,-9999,-9999.0,North,-9999.0,-,N/A,Rain,Light Rain,0,2013-10-09 00:53:00
9:53 PM,-9999,-9999,N/A,-9999,-9999.0,North,-9999.0,-,N/A,Rain,Light Rain,0,2013-10-09 01:53:00
10:53 PM,-9999,-9999,N/A,-9999,-9999.0,North,-9999.0,-,N/A,Rain,Light Rain,0,2013-10-09 02:53:00
11:53 PM,-9999,-9999,N/A,-9999,-9999.0,North,-9999.0,-,N/A,Rain,Light Rain,0,2013-10-09 03:53:00